When you browse on this site, cookies collect data to enhance your experience and personalize the content and advertising you see.
Visit our Privacy Policy to learn more. By continuing to use the site, you agree to this use of cookies and data.
  • In Latvia
  • List of Countries
  • For 7 days
  • Water Temperature
  • Satellite Maps
  • Weather Map
  • Weather Widgets
  • user-avatar
    Login

    Hourly Weather Zaranj

    Today, 18 April, Thursday

    Time Temperature Precipitation Wind Pressure Humidity
    00:00 +26°C° 0 mm 2 mps 717 mmHg 27%
    01:00 +26°C° 0 mm 2 mps 717 mmHg 26%
    02:00 +25°C° 0 mm 2 mps 717 mmHg 27%
    03:00 +25°C° 0 mm 2 mps 717 mmHg 27%
    04:00 +24°C° 0 mm 1 mps 717 mmHg 29%
    05:00 +24°C° 0 mm 2 mps 718 mmHg 28%
    06:00 +25°C° 0 mm 2 mps 718 mmHg 27%
    07:00 +25°C° 0 mm 2 mps 718 mmHg 26%
    08:00 +27°C° 0 mm 2 mps 719 mmHg 23%
    09:00 +29°C° 0 mm 3 mps 719 mmHg 19%
    10:00 +30°C° 0 mm 3 mps 719 mmHg 16%
    11:00 +33°C° 0 mm 3 mps 719 mmHg 14%
    12:00 +34°C° 0 mm 3 mps 719 mmHg 13%
    13:00 +35°C° 0 mm 3 mps 719 mmHg 11%
    14:00 +35°C° 0 mm 3 mps 718 mmHg 11%
    15:00 +36°C° 0 mm 3 mps 718 mmHg 10%
    16:00 +37°C° 0 mm 3 mps 717 mmHg 10%
    17:00 +36°C° 0 mm 4 mps 717 mmHg 11%
    18:00 +35°C° 0 mm 4 mps 717 mmHg 12%
    19:00 +34°C° 0 mm 4 mps 717 mmHg 13%
    20:00 +33°C° 0 mm 4 mps 717 mmHg 13%
    21:00 +32°C° 0 mm 4 mps 717 mmHg 14%
    22:00 +31°C° 0 mm 3 mps 717 mmHg 15%
    23:00 +30°C° 0 mm 3 mps 717 mmHg 15%

    Tomorrow, 19 April, Friday

    Time Temperature Precipitation Wind Pressure Humidity
    00:00 +29°C° 0 mm 3 mps 717 mmHg 16%
    01:00 +29°C° 0 mm 3 mps 716 mmHg 17%
    02:00 +28°C° 0 mm 3 mps 716 mmHg 18%
    03:00 +28°C° 0 mm 3 mps 716 mmHg 19%
    04:00 +27°C° 0 mm 3 mps 716 mmHg 19%
    05:00 +27°C° 0 mm 3 mps 716 mmHg 20%
    06:00 +28°C° 0 mm 2 mps 716 mmHg 20%
    07:00 +28°C° 0 mm 2 mps 717 mmHg 20%
    08:00 +30°C° 0 mm 2 mps 717 mmHg 18%
    09:00 +31°C° 0 mm 1 mps 717 mmHg 16%
    10:00 +33°C° 0 mm 1 mps 717 mmHg 14%
    11:00 +34°C° 0 mm 1 mps 717 mmHg 14%
    12:00 +35°C° 0 mm 1 mps 716 mmHg 13%
    13:00 +36°C° 0 mm 1 mps 716 mmHg 13%
    14:00 +36°C° 0 mm 1 mps 716 mmHg 12%
    15:00 +37°C° 0 mm 1 mps 715 mmHg 12%
    16:00 +37°C° 0 mm 1 mps 715 mmHg 11%
    17:00 +37°C° 0 mm 1 mps 715 mmHg 12%
    18:00 +36°C° 0 mm 1 mps 715 mmHg 13%
    19:00 +36°C° 0 mm 1 mps 715 mmHg 15%
    20:00 +35°C° 0 mm 1 mps 715 mmHg 16%
    21:00 +34°C° 0 mm 1 mps 715 mmHg 17%
    22:00 +33°C° 0 mm 1 mps 715 mmHg 18%
    23:00 +32°C° 0 mm 1 mps 715 mmHg 18%

    Day after tomorrow, 20 April, Saturday

    Time Temperature Precipitation Wind Pressure Humidity
    00:00 +32°C° 0 mm 1 mps 714 mmHg 18%
    01:00 +31°C° 0 mm 2 mps 714 mmHg 19%
    02:00 +31°C° 0 mm 1 mps 714 mmHg 20%
    03:00 +30°C° 0 mm 1 mps 713 mmHg 21%
    04:00 +29°C° 0 mm 1 mps 713 mmHg 22%
    05:00 +30°C° 0 mm 1 mps 714 mmHg 22%
    06:00 +30°C° 0 mm 2 mps 714 mmHg 21%
    07:00 +31°C° 0 mm 2 mps 714 mmHg 21%
    08:00 +32°C° 0 mm 2 mps 715 mmHg 19%
    09:00 +34°C° 0 mm 1 mps 715 mmHg 17%
    10:00 +35°C° 0 mm 1 mps 715 mmHg 14%
    11:00 +36°C° 0 mm 1 mps 715 mmHg 14%
    12:00 +35°C° 0 mm 0 mps 714 mmHg 13%
    13:00 +36°C° 0 mm 0 mps 714 mmHg 12%
    14:00 +36°C° 0 mm 0 mps 713 mmHg 11%
    15:00 +36°C° 0 mm 0 mps 713 mmHg 11%
    16:00 +37°C° 0 mm 0 mps 713 mmHg 11%
    17:00 +39°C° 0 mm 1 mps 713 mmHg 11%
    18:00 +37°C° 0 mm 1 mps 713 mmHg 12%
    19:00 +38°C° 0 mm 2 mps 713 mmHg 13%
    20:00 +37°C° 0 mm 2 mps 713 mmHg 14%
    21:00 +36°C° 0 mm 2 mps 713 mmHg 14%
    22:00 +35°C° 0 mm 3 mps 713 mmHg 15%
    23:00 +35°C° 0 mm 3 mps 713 mmHg 15%

    21 April, Sunday

    Time Temperature Precipitation Wind Pressure Humidity
    00:00 +34°C° 0 mm 3 mps 713 mmHg 16%
    01:00 +34°C° 0 mm 3 mps 712 mmHg 16%
    02:00 +33°C° 0 mm 3 mps 712 mmHg 17%
    03:00 +33°C° 0 mm 3 mps 712 mmHg 18%
    04:00 +31°C° 0 mm 3 mps 712 mmHg 19%
    05:00 +31°C° 0 mm 3 mps 713 mmHg 19%
    06:00 +31°C° 0 mm 3 mps 713 mmHg 19%
    07:00 +33°C° 0 mm 3 mps 714 mmHg 19%
    08:00 +32°C° 0 mm 5 mps 714 mmHg 24%
    09:00 +32°C° 0 mm 7 mps 714 mmHg 29%
    10:00 +32°C° 0 mm 9 mps 714 mmHg 34%
    11:00 +33°C° 0 mm 9 mps 714 mmHg 30%
    12:00 +34°C° 0 mm 9 mps 714 mmHg 26%
    13:00 +35°C° 0 mm 9 mps 714 mmHg 22%
    14:00 +35°C° 0 mm 9 mps 713 mmHg 22%
    15:00 +35°C° 0 mm 8 mps 713 mmHg 22%
    16:00 +35°C° 0 mm 8 mps 713 mmHg 22%
    17:00 +34°C° 0 mm 8 mps 713 mmHg 25%
    18:00 +32°C° 0 mm 9 mps 713 mmHg 28%
    19:00 +31°C° 0 mm 9 mps 714 mmHg 31%
    20:00 +29°C° 0 mm 9 mps 714 mmHg 33%
    21:00 +28°C° 0 mm 9 mps 714 mmHg 35%
    22:00 +27°C° 0 mm 10 mps 715 mmHg 37%
    23:00 +26°C° 0 mm 10 mps 715 mmHg 39%

    22 April, Monday

    Time Temperature Precipitation Wind Pressure Humidity
    00:00 +24°C° 0 mm 11 mps 714 mmHg 40%
    01:00 +23°C° 0 mm 11 mps 714 mmHg 42%
    02:00 +23°C° 0 mm 11 mps 714 mmHg 42%
    03:00 +22°C° 0 mm 10 mps 714 mmHg 43%
    04:00 +22°C° 0 mm 10 mps 714 mmHg 43%
    05:00 +22°C° 0 mm 9 mps 715 mmHg 43%
    06:00 +22°C° 0 mm 8 mps 715 mmHg 43%
    07:00 +22°C° 0 mm 7 mps 716 mmHg 43%
    08:00 +24°C° 0 mm 6 mps 716 mmHg 38%
    09:00 +26°C° 0 mm 6 mps 716 mmHg 34%
    10:00 +28°C° 0 mm 5 mps 716 mmHg 30%
    11:00 +29°C° 0 mm 4 mps 716 mmHg 27%
    12:00 +30°C° 0 mm 3 mps 715 mmHg 24%
    13:00 +32°C° 0 mm 2 mps 715 mmHg 21%
    14:00 +32°C° 0 mm 1 mps 714 mmHg 20%
    15:00 +33°C° 0 mm 1 mps 714 mmHg 20%
    16:00 +34°C° 0 mm 1 mps 713 mmHg 19%
    17:00 +34°C° 0 mm 1 mps 713 mmHg 19%
    18:00 +31°C° 0 mm 0 mps 713 mmHg 20%
    19:00 +31°C° 0 mm 0 mps 713 mmHg 21%
    20:00 +33°C° 0 mm 1 mps 713 mmHg 22%
    21:00 +33°C° 0 mm 1 mps 714 mmHg 22%
    22:00 +32°C° 0 mm 2 mps 714 mmHg 23%
    23:00 +31°C° 0 mm 3 mps 714 mmHg 26%

    23 April, Tuesday

    Time Temperature Precipitation Wind Pressure Humidity
    00:00 +30°C° 0 mm 4 mps 713 mmHg 29%
    01:00 +29°C° 0 mm 5 mps 713 mmHg 32%
    02:00 +28°C° 0 mm 4 mps 713 mmHg 34%
    03:00 +27°C° 0 mm 3 mps 712 mmHg 36%
    04:00 +27°C° 0 mm 2 mps 712 mmHg 38%
    05:00 +27°C° 0 mm 2 mps 713 mmHg 36%
    06:00 +28°C° 0 mm 1 mps 713 mmHg 34%
    07:00 +28°C° 0 mm 1 mps 713 mmHg 33%
    08:00 +30°C° 0 mm 1 mps 713 mmHg 29%
    09:00 +32°C° 0 mm 2 mps 714 mmHg 26%
    10:00 +35°C° 0 mm 2 mps 714 mmHg 23%
    11:00 +36°C° 0 mm 2 mps 713 mmHg 21%
    12:00 +38°C° 0 mm 2 mps 713 mmHg 18%
    13:00 +39°C° 0 mm 2 mps 712 mmHg 16%
    14:00 +40°C° 0 mm 3 mps 712 mmHg 14%
    15:00 +41°C° 0 mm 4 mps 711 mmHg 13%
    16:00 +42°C° 0 mm 5 mps 711 mmHg 12%
    17:00 +40°C° 0 mm 5 mps 711 mmHg 16%
    18:00 +38°C° 0 mm 6 mps 711 mmHg 19%
    19:00 +35°C° 0 mm 6 mps 711 mmHg 23%
    20:00 +33°C° 0.2 mm 7 mps 711 mmHg 26%
    21:00 +31°C° 0.2 mm 8 mps 711 mmHg 30%
    22:00 +28°C° 0.2 mm 9 mps 711 mmHg 33%
    23:00 +27°C° 0 mm 10 mps 711 mmHg 33%
    Show more